Location: Crescent
(42.8242°N, 73.7329°W)
Time: 01:40:42
(UTC+00:00)

Explorer 7 - Pass Details

Date: 18 February 2026
Orbit: 430 x 541 km, 50.2° (Epoch: 10 March)

Event Time Altitude Azimuth Distance (km) Brightness Sun altitude
Rises 21:09:01 0° 267° (W) 2,440 11.3 13.0°
Reaches altitude 10° 21:11:15 10° 277° (W) 1,587 10.2 12.6°
Maximum altitude 21:14:32 34° 344° (NNW) 793 7.7 12.1°
Drops below altitude 10° 21:17:57 10° 51° (NE) 1,650 8.7 11.5°
Sets 21:20:19 0° 61° (ENE) 2,554 9.6 11.2°
